Voltar ao catálogo

KUIPER-00639

AtivoComunicaçõesVLEO
NORAD 69786·PAYLOAD·🇺🇸 United States

Lançado Jul 2, 2026 de Cape Canaveral Space Force Station

Loading…

Próximas Passagens (próximas 24 horas)

TLE

AtualizadoSource: CelesTrak SupGP

Época: Sep 14, 2026, 16:21 UTC

1 69786C 26151Z   26257.68170139 -.00993340  00000+0 -94288-1 0  2576
2 69786  51.8947 247.7845 0010295  24.7816 247.9885 14.93991282    16

Acompanhe KUIPER-00639 em tempo real com AllMySat

Download on the App Store